Starlink 34813

operational
NORAD ID: 66196 Int'l Des: 2025-243 Owner: SPXS Country: US Constellation: starlink
LEOCIRCULAR

Starlink 34813について

説明を読み込み中...

リアルタイム位置

3D地球を読み込み中...

次回通過

高度履歴

Altitude vs Time

uPlot chart will show altitude changes over time

軌道要素

1 66196C 25243U 25299.74006944 .00800960 00000+0 13149-2 0 2990
2 66196 53.1580 157.0515 0009199 275.1494 44.2046 16.01589901 17
Epoch: Oct 26, 2025 • Age: 122 hours

現在のステータス

高度 259.1 km
速度 7.75 km/s
衛星直下点 -49.89°S, 0.54°W
打ち上げ日 Oct 26, 2025
運用期間 5 days
タイプ internet

技術仕様

分類 Payload
質量 575.00 kg
乾燥質量 530.00 kg
総質量 575.00 kg
長さ 0.30 m
直径 4.10 m
スパン 29.00 m
形状 Box + pan
製造者 SPXS
バスタイプ Starlink V2MO
フェーズステータス In Orbit
所有者/国 SPXS/US

大規模コンステレーション

Loading constellations...